Location: Unspecified
(0.0000°N, 0.0000°E)
Time: 04:00:57
(UTC+02:00)

Iridium 84 - Visible Passes

Search period start: 25 September 2016 00:00
Search period end: 05 October 2016 00:00
Orbit: 776 x 779 km, 86.4° (Epoch: 24 September)

Date Brightness Start Highest point End Pass type
(mag) Time Alt. Az. Time Alt. Az. Time Alt. Az.
26 Sep 8.6 21:14:09 10° NW 21:17:12 16° W 21:20:16 10° SW visible
27 Sep 7.4 20:39:04 10° NNW 20:43:45 35° W 20:48:28 10° SSW visible
28 Sep 5.8 20:05:06 10° N 20:10:17 79° W 20:15:31 10° S visible
29 Sep 8.8 07:00:13 10° SE 07:03:25 16° E 07:06:37 10° NE visible
30 Sep 8.3 20:39:54 10° NW 20:43:48 22° W 20:47:44 10° SW visible
01 Oct 6.8 20:05:21 10° NNW 20:10:21 48° W 20:15:22 10° SSW visible
02 Oct 8.0 06:59:09 10° SE 07:03:29 26° E 07:07:47 10° NNE visible
03 Oct 9.0 06:28:16 10° ESE 06:30:01 12° E 06:31:46 10° ENE visible
03 Oct 8.9 20:41:29 10° WNW 20:43:51 13° W 20:46:15 10° WSW visible
04 Oct 7.9 20:05:55 10° NNW 20:10:24 29° W 20:14:55 10° SSW visible
